Weather History for Brownwood, TX

Change the Weather History Date:

Thursday, January 31, 2013

  Actual Average (KABI) Record (KABI)
Temperature  
Mean Temperature 44 °F 46 °F  
Max Temperature 66 °F 58 °F 90 °F (1911)
Min Temperature 23 °F 34 °F 8 °F (1899)
Degree Days  
Heating Degree Days 20 19  
Month to date heating degree days 624  
Since 1 July heating degree days 1669  
Cooling Degree Days 0 0  
Month to date cooling degree days 1  
Year to date cooling degree days 1  
Moisture  
Dew Point 20 °F    
Average Humidity 43    
Maximum Humidity 80    
Minimum Humidity 14    
Precipitation  
Precipitation 0.00 in 0.04 in 1.31 in (1923)
Month to date precipitation 1.02  
Year to date precipitation 1.02  
Sea Level Pressure  
Sea Level Pressure 30.19 in    
Wind  
Wind Speed 5 mph (SW)    
Max Wind Speed 21 mph    
Max Gust Speed 30 mph    
Visibility 10 miles    
Events      
T = Trace of Precipitation, MM = Missing Value Source: NWS Daily Summary

Daily Weather History Graph

Daily Weather History Graph

Search for Another Location

Airport:

Trip Planner

Search our weather history database for the weather conditions in past years. The results will help you decide how hot, cold, wet, or windy it might be!

Date:

Astronomy

Jan. 31, 2013 Rise Set
Actual Time 7:29 AM CST 6:09 PM CST
Civil Twilight 7:03 AM CST 6:35 PM CST
Nautical Twilight 6:34 AM CST 7:04 PM CST
Astronomical Twilight 6:05 AM CST 7:33 PM CST
Moon 10:50 PM CST (1/31) 9:50 AM CST (1/31)
Length of Visible Light 11h 31m
Length of Day
10h 40m
Waning Gibbous, 79% of the Moon is Illuminated
Jan 31
Waning Gibbous
Feb 3
Last Quarter
Feb 10
New
Feb 17
First Quarter
Feb 25
Full

Hourly Weather History & Observations

Time (CST) Temp. Windchill Dew Point Humidity Pressure Visibility Wind Dir Wind Speed Gust Speed Precip Events Conditions
12:15 AM 28.4 °F 24.6 °F 17.6 °F 64% 30.18 in 10.0 mi SSE 3.5 mph - N/A   Clear
12:35 AM 30.2 °F - 19.4 °F 64% 30.18 in 10.0 mi Calm Calm - N/A   Clear
12:55 AM 28.4 °F - 19.4 °F 69% 30.18 in 10.0 mi Calm Calm - N/A   Partly Cloudy
1:15 AM 30.2 °F - 19.4 °F 64% 30.17 in 10.0 mi Calm Calm - N/A   Partly Cloudy
1:35 AM 26.6 °F - 19.4 °F 74% 30.18 in 10.0 mi Calm Calm - N/A   Partly Cloudy
1:55 AM 26.6 °F - 19.4 °F 74% 30.17 in 10.0 mi Calm Calm - N/A   Partly Cloudy
2:15 AM 26.6 °F - 19.4 °F 74% 30.18 in 10.0 mi Calm Calm - N/A   Partly Cloudy
2:35 AM 24.8 °F - 17.6 °F 74% 30.19 in 10.0 mi Calm Calm - N/A   Clear
2:55 AM 26.6 °F 22.6 °F 19.4 °F 74% 30.19 in 10.0 mi ESE 3.5 mph - N/A   Partly Cloudy
3:15 AM 32.0 °F 28.7 °F 15.8 °F 51% 30.18 in 10.0 mi ENE 3.5 mph - N/A   Partly Cloudy
3:35 AM 26.6 °F 21.2 °F 19.4 °F 74% 30.17 in 10.0 mi East 4.6 mph - N/A   Clear
3:55 AM 26.6 °F - 19.4 °F 74% 30.17 in 10.0 mi Calm Calm - N/A   Clear
4:15 AM 26.6 °F - 17.6 °F 69% 30.16 in 10.0 mi Calm Calm - N/A   Clear
4:35 AM 23.0 °F - 17.6 °F 80% 30.15 in 10.0 mi Calm Calm - N/A   Clear
4:55 AM 26.6 °F - 19.4 °F 74% 30.15 in 10.0 mi Calm Calm - N/A   Clear
5:15 AM 26.6 °F - 19.4 °F 74% 30.14 in 10.0 mi Calm Calm - N/A   Clear
5:35 AM 23.0 °F - 17.6 °F 80% 30.16 in 10.0 mi Calm Calm - N/A   Clear
6:15 AM 23.0 °F 17.0 °F 17.6 °F 80% 30.17 in 10.0 mi South 4.6 mph - N/A   Clear
6:55 AM 26.6 °F 20.0 °F 19.4 °F 74% 30.19 in 10.0 mi SE 5.8 mph - N/A   Clear
7:15 AM 28.4 °F 23.3 °F 17.6 °F 64% 30.19 in 10.0 mi SE 4.6 mph - N/A   Clear
7:35 AM 28.4 °F 24.6 °F 17.6 °F 64% 30.20 in 10.0 mi ESE 3.5 mph - N/A   Clear
7:55 AM 26.6 °F 21.2 °F 17.6 °F 69% 30.21 in 10.0 mi SE 4.6 mph - N/A   Clear
8:15 AM 32.0 °F 27.5 °F 21.2 °F 64% 30.21 in 10.0 mi East 4.6 mph - N/A   Clear
8:35 AM 35.6 °F - 23.0 °F 60% 30.21 in 10.0 mi Calm Calm - N/A   Clear
8:55 AM 37.4 °F - 24.8 °F 60% 30.22 in 10.0 mi Calm Calm - N/A   Clear
9:15 AM 39.2 °F 37.0 °F 21.2 °F 49% 30.23 in 10.0 mi South 3.5 mph - N/A   Clear
9:35 AM 42.8 °F 39.3 °F 19.4 °F 39% 30.23 in 10.0 mi SSW 5.8 mph - N/A   Clear
9:55 AM 46.4 °F 43.5 °F 19.4 °F 34% 30.24 in 10.0 mi SSW 5.8 mph - N/A   Clear
10:15 AM 48.2 °F - 17.6 °F 30% 30.24 in - SW 11.5 mph 17.3 mph N/A   Unknown
10:35 AM 53.6 °F - 15.8 °F 22% 30.24 in 10.0 mi SW 12.7 mph - N/A   Clear
10:55 AM 55.4 °F - 17.6 °F 23% 30.24 in 10.0 mi SW 12.7 mph 17.3 mph N/A   Clear
11:15 AM 55.4 °F - 17.6 °F 23% 30.23 in 10.0 mi SW 15.0 mph 19.6 mph N/A   Clear
11:35 AM 57.2 °F - 19.4 °F 23% 30.23 in 10.0 mi SW 15.0 mph 18.4 mph N/A   Clear
11:55 AM 59.0 °F - 17.6 °F 20% 30.21 in 10.0 mi WSW 18.4 mph - N/A   Clear
12:15 PM 62.6 °F - 17.6 °F 18% 30.20 in 10.0 mi SW 12.7 mph 23.0 mph N/A   Clear
12:35 PM 64.4 °F - 17.6 °F 16% 30.19 in 10.0 mi WSW 11.5 mph - N/A   Clear
12:55 PM 64.4 °F - 15.8 °F 15% 30.18 in 10.0 mi WSW 16.1 mph 23.0 mph N/A   Clear
1:15 PM 64.4 °F - 15.8 °F 15% 30.17 in 10.0 mi WSW 18.4 mph 25.3 mph N/A   Clear
1:35 PM 64.4 °F - 15.8 °F 15% 30.17 in 10.0 mi WSW 17.3 mph 24.2 mph N/A   Clear
1:55 PM 66.2 °F - 15.8 °F 14% 30.16 in 10.0 mi West 15.0 mph 29.9 mph N/A   Clear
2:15 PM 66.2 °F - 15.8 °F 14% 30.14 in 10.0 mi West 16.1 mph 23.0 mph N/A   Clear
2:35 PM 66.2 °F - 15.8 °F 14% 30.13 in 10.0 mi SW 20.7 mph 25.3 mph N/A   Clear
2:55 PM 66.2 °F - 15.8 °F 14% 30.12 in 10.0 mi West 18.4 mph 26.5 mph N/A   Clear
3:15 PM 66.2 °F - 15.8 °F 14% 30.13 in 10.0 mi SW 19.6 mph 27.6 mph N/A   Clear
3:35 PM 66.2 °F - 15.8 °F 14% 30.13 in 10.0 mi WSW 11.5 mph 21.9 mph N/A   Clear
3:55 PM 66.2 °F - 17.6 °F 15% 30.14 in 10.0 mi WSW 15.0 mph 25.3 mph N/A   Clear
4:15 PM 66.2 °F - 17.6 °F 15% 30.14 in 10.0 mi SW 19.6 mph 23.0 mph N/A   Clear
4:35 PM 66.2 °F - 17.6 °F 15% 30.14 in 10.0 mi WSW 13.8 mph - N/A   Clear
4:55 PM 64.4 °F - 17.6 °F 16% 30.14 in 10.0 mi SW 12.7 mph - N/A   Clear
5:15 PM 66.2 °F - 17.6 °F 15% 30.14 in 10.0 mi SW 12.7 mph - N/A   Clear
5:35 PM 66.2 °F - 17.6 °F 15% 30.14 in 10.0 mi SW 8.1 mph - N/A   Clear
5:55 PM 62.6 °F - 17.6 °F 18% 30.14 in 10.0 mi SW 8.1 mph - N/A   Clear
6:15 PM 60.8 °F - 19.4 °F 20% 30.15 in 10.0 mi West 4.6 mph - N/A   Clear
6:35 PM 60.8 °F - 19.4 °F 20% 30.16 in 10.0 mi Calm Calm - N/A   Clear
6:55 PM 57.2 °F - 19.4 °F 23% 30.17 in 10.0 mi Calm Calm - N/A   Partly Cloudy
7:15 PM 55.4 °F - 21.2 °F 26% 30.19 in 10.0 mi Calm Calm - N/A   Scattered Clouds
7:35 PM 55.4 °F - 19.4 °F 25% 30.19 in 10.0 mi Calm Calm - N/A   Mostly Cloudy
7:55 PM 53.6 °F - 21.2 °F 28% 30.21 in 10.0 mi Calm Calm - N/A   Scattered Clouds
8:15 PM 48.2 °F - 24.8 °F 40% 30.21 in 10.0 mi Calm Calm - N/A   Mostly Cloudy
8:35 PM 46.4 °F - 24.8 °F 43% 30.22 in 10.0 mi Calm Calm - N/A   Overcast
8:55 PM 48.2 °F - 24.8 °F 40% 30.22 in 10.0 mi NE 3.5 mph - N/A   Mostly Cloudy
9:15 PM 44.6 °F - 26.6 °F 49% 30.23 in 10.0 mi Calm Calm - N/A   Partly Cloudy
9:35 PM 44.6 °F - 26.6 °F 49% 30.23 in 10.0 mi Calm Calm - N/A   Clear
9:55 PM 42.8 °F - 24.8 °F 49% 30.23 in 10.0 mi Calm Calm - N/A   Clear
10:15 PM 42.8 °F - 26.6 °F 53% 30.24 in 10.0 mi Calm Calm - N/A   Clear
10:35 PM 39.2 °F - 28.4 °F 65% 30.24 in 10.0 mi Calm Calm - N/A   Clear
10:55 PM 41.0 °F - 26.6 °F 57% 30.25 in 10.0 mi Calm Calm - N/A   Clear
11:15 PM 41.0 °F - 26.6 °F 57% 30.25 in 10.0 mi Calm Calm - N/A   Clear
11:35 PM 39.2 °F - 26.6 °F 61% 30.26 in 10.0 mi Calm Calm - N/A   Clear
11:55 PM 39.2 °F 34.2 °F 24.8 °F 56% 30.26 in 10.0 mi NNE 6.9 mph - N/A   Clear